FDX233 MMMX-MMCU

Flight info

Callsign FDX233
Flight time 1h 38m
Altitude 32000
Route ATURO2A ATURO UT135 AXABA J13 LENEM LENEM1A
Aircraft B77L/H-SDE1E2E3FGHIJ2J3J4J5M1RWXY/LB1D1

Departure

Time 2026-05-07 22:53
Airport Mexico City Benito Juárez International Airport (MMMX)

Arrival

Time 2026-05-08 00:32
Airport General Roberto Fierro Villalobos International Airport (MMCU)
Time Latitude Longitude Altitude Speed Heading
2026-05-07 22:40 19.43032 -99.08967 7308 ft 0 kts 295°
2026-05-07 22:46 19.43026 -99.08953 7308 ft 4 kts 317°
2026-05-07 22:46 19.43012 -99.08941 7308 ft 2 kts 297°
2026-05-07 22:46 19.43005 -99.08925 7308 ft 4 kts 249°
2026-05-07 22:47 19.43016 -99.08913 7308 ft 4 kts 206°
2026-05-07 22:47 19.43041 -99.08901 7308 ft 4 kts 205°
2026-05-07 22:47 19.43052 -99.08895 7308 ft 0 kts 207°
2026-05-07 22:50 19.43044 -99.08900 7308 ft 5 kts 207°
2026-05-07 22:50 19.43002 -99.08923 7308 ft 7 kts 207°
2026-05-07 22:50 19.42958 -99.08947 7308 ft 7 kts 210°
2026-05-07 22:50 19.42925 -99.08987 7308 ft 8 kts 230°
2026-05-07 22:51 19.42866 -99.09042 7308 ft 15 kts 209°
2026-05-07 22:51 19.42790 -99.09086 7308 ft 22 kts 208°
2026-05-07 22:51 19.42717 -99.09080 7309 ft 8 kts 122°
2026-05-07 22:51 19.42695 -99.09002 7309 ft 15 kts 101°
2026-05-07 22:52 19.42687 -99.08870 7307 ft 21 kts 92°
2026-05-07 22:52 19.42678 -99.08715 7306 ft 21 kts 94°
2026-05-07 22:52 19.42707 -99.08563 7307 ft 24 kts 63°
2026-05-07 22:52 19.42904 -99.08214 7309 ft 93 kts 59°
2026-05-07 22:53 19.43359 -99.07411 7308 ft 161 kts 58°
2026-05-07 22:53 19.43998 -99.06271 7544 ft 188 kts 59°
2026-05-07 22:53 19.44688 -99.05073 8332 ft 198 kts 56°
2026-05-07 22:53 19.45819 -99.04146 8525 ft 218 kts 15°
2026-05-07 22:54 19.47374 -99.04205 8761 ft 235 kts 342°
2026-05-07 22:54 19.48985 -99.04802 8974 ft 257 kts 341°
2026-05-07 22:54 19.50762 -99.05414 9044 ft 279 kts 343°
2026-05-07 22:54 19.52630 -99.05986 9252 ft 284 kts 345°
2026-05-07 22:55 19.54572 -99.06523 9857 ft 293 kts 346°
2026-05-07 22:55 19.56583 -99.07034 10366 ft 306 kts 347°
2026-05-07 22:55 19.58752 -99.07549 10538 ft 333 kts 349°
2026-05-07 22:55 19.61110 -99.08075 10778 ft 358 kts 349°
2026-05-07 22:56 19.63620 -99.08615 11124 ft 377 kts 349°
2026-05-07 22:56 19.66184 -99.09153 11761 ft 385 kts 350°
2026-05-07 22:56 19.68835 -99.09699 12480 ft 390 kts 350°
2026-05-07 22:56 19.71522 -99.10247 13215 ft 396 kts 350°
2026-05-07 22:57 19.74248 -99.10800 13902 ft 402 kts 349°
2026-05-07 22:57 19.77013 -99.11361 14509 ft 408 kts 349°
2026-05-07 22:57 19.79812 -99.11927 15199 ft 410 kts 349°
2026-05-07 22:57 19.82632 -99.12497 15743 ft 417 kts 349°
2026-05-07 22:58 19.85505 -99.13079 16349 ft 420 kts 349°
2026-05-07 22:58 19.88381 -99.13662 16965 ft 425 kts 349°
2026-05-07 22:58 19.91314 -99.14257 17542 ft 430 kts 349°
2026-05-07 22:58 19.94258 -99.14854 18171 ft 434 kts 349°
2026-05-07 22:59 19.97244 -99.15460 18680 ft 438 kts 349°
2026-05-07 22:59 20.00252 -99.16070 19132 ft 443 kts 348°
2026-05-07 22:59 20.03303 -99.16690 19614 ft 448 kts 348°
2026-05-07 22:59 20.06374 -99.17313 20075 ft 452 kts 348°
2026-05-07 23:00 20.09468 -99.17943 20721 ft 452 kts 348°
2026-05-07 23:00 20.12560 -99.18572 21367 ft 453 kts 348°
2026-05-07 23:00 20.15642 -99.19198 22284 ft 446 kts 348°
2026-05-07 23:00 20.18675 -99.19815 23010 ft 448 kts 348°
2026-05-07 23:01 20.21779 -99.20447 23310 ft 458 kts 348°
2026-05-07 23:01 20.24921 -99.21087 23791 ft 460 kts 348°
2026-05-07 23:01 20.28054 -99.21725 24371 ft 460 kts 347°
2026-05-07 23:01 20.31210 -99.22368 24856 ft 462 kts 348°
2026-05-07 23:02 20.34391 -99.23017 25313 ft 465 kts 347°
2026-05-07 23:02 20.37579 -99.23668 25697 ft 472 kts 347°
2026-05-07 23:02 20.40814 -99.24385 25965 ft 478 kts 343°
2026-05-07 23:02 20.43949 -99.25592 26386 ft 479 kts 333°
2026-05-07 23:03 20.46887 -99.27262 26788 ft 480 kts 326°
2026-05-07 23:03 20.49581 -99.29366 27117 ft 482 kts 317°
2026-05-07 23:03 20.52154 -99.31702 27407 ft 488 kts 316°
2026-05-07 23:03 20.54721 -99.34089 27747 ft 492 kts 316°
2026-05-07 23:04 20.57306 -99.36496 28071 ft 496 kts 316°
2026-05-07 23:04 20.59925 -99.38917 28435 ft 498 kts 316°
2026-05-07 23:04 20.62554 -99.41323 28828 ft 500 kts 317°
2026-05-07 23:04 20.65212 -99.43741 29212 ft 502 kts 317°
2026-05-07 23:05 20.67843 -99.46125 29639 ft 502 kts 317°
2026-05-07 23:05 20.70502 -99.48529 30131 ft 500 kts 317°
2026-05-07 23:05 20.73149 -99.50923 30650 ft 497 kts 316°
2026-05-07 23:05 20.75782 -99.53308 31176 ft 494 kts 317°
2026-05-07 23:06 20.78395 -99.55678 31659 ft 492 kts 316°
2026-05-07 23:06 20.81004 -99.58046 31803 ft 491 kts 316°
2026-05-07 23:06 20.83605 -99.60409 31800 ft 490 kts 316°
2026-05-07 23:07 20.88812 -99.65146 31805 ft 493 kts 316°
2026-05-07 23:07 20.94037 -99.69903 31801 ft 494 kts 316°
2026-05-07 23:08 20.99268 -99.74665 31797 ft 494 kts 316°
2026-05-07 23:08 21.04226 -99.79697 31807 ft 489 kts 308°
2026-05-07 23:09 21.08286 -99.85498 31803 ft 486 kts 301°
2026-05-07 23:09 21.12102 -99.91465 31796 ft 485 kts 301°
2026-05-07 23:10 21.15927 -99.97420 31791 ft 485 kts 301°
2026-05-07 23:10 21.19748 -100.03323 31801 ft 485 kts 302°
2026-05-07 23:11 21.23606 -100.09268 31795 ft 486 kts 302°
2026-05-07 23:11 21.27463 -100.15216 31805 ft 486 kts 301°
2026-05-07 23:12 21.31320 -100.21175 31792 ft 486 kts 301°
2026-05-07 23:12 21.35177 -100.27139 31791 ft 486 kts 301°
2026-05-07 23:13 21.39026 -100.33099 31800 ft 486 kts 301°
2026-05-07 23:13 21.42867 -100.39052 31797 ft 485 kts 301°
2026-05-07 23:14 21.46709 -100.45014 31798 ft 485 kts 301°
2026-05-07 23:14 21.50548 -100.50976 31782 ft 485 kts 301°
2026-05-07 23:15 21.54379 -100.56935 31782 ft 484 kts 301°
2026-05-07 23:15 21.58199 -100.62881 31799 ft 484 kts 301°
2026-05-07 23:16 21.62014 -100.68827 31774 ft 483 kts 301°
2026-05-07 23:16 21.65834 -100.74786 31775 ft 483 kts 301°
2026-05-07 23:17 21.69643 -100.80734 31772 ft 483 kts 301°
2026-05-07 23:17 21.73457 -100.86699 31971 ft 487 kts 301°
2026-05-07 23:17 21.75352 -100.89664 32461 ft 484 kts 301°
2026-05-07 23:18 21.77253 -100.92637 33034 ft 480 kts 301°
2026-05-07 23:18 21.79135 -100.95583 33597 ft 476 kts 300°
2026-05-07 23:18 21.81005 -100.98513 33992 ft 475 kts 300°
2026-05-07 23:19 21.84741 -101.04376 33990 ft 475 kts 300°
2026-05-07 23:19 21.88474 -101.10240 33994 ft 474 kts 300°
2026-05-07 23:20 21.92198 -101.16096 33988 ft 474 kts 300°
2026-05-07 23:20 21.95919 -101.21951 33987 ft 473 kts 300°
2026-05-07 23:21 21.99825 -101.27663 33980 ft 477 kts 307°
2026-05-07 23:21 22.04623 -101.32648 33981 ft 482 kts 316°
2026-05-07 23:22 22.09892 -101.37145 33980 ft 483 kts 317°
2026-05-07 23:22 22.15178 -101.41628 33971 ft 483 kts 317°
2026-05-07 23:23 22.20438 -101.46146 33990 ft 483 kts 316°
2026-05-07 23:23 22.25685 -101.50682 34004 ft 483 kts 316°
2026-05-07 23:24 22.30931 -101.55225 33991 ft 484 kts 316°
2026-05-07 23:24 22.36145 -101.59745 34020 ft 483 kts 316°
2026-05-07 23:25 22.41390 -101.64292 34001 ft 483 kts 316°
2026-05-07 23:25 22.46629 -101.68838 34024 ft 483 kts 316°
2026-05-07 23:26 22.51863 -101.73387 34018 ft 482 kts 316°
2026-05-07 23:26 22.57085 -101.77946 34014 ft 481 kts 315°
2026-05-07 23:27 22.64564 -101.85144 34023 ft 479 kts 312°
2026-05-07 23:27 22.69495 -101.89996 34025 ft 479 kts 313°
2026-05-07 23:28 22.74449 -101.94820 34029 ft 478 kts 313°
2026-05-07 23:28 22.79409 -101.99624 34034 ft 478 kts 313°
2026-05-07 23:29 22.84364 -102.04424 34036 ft 478 kts 313°
2026-05-07 23:29 22.89315 -102.09226 34032 ft 477 kts 312°
2026-05-07 23:30 22.94227 -102.13998 34038 ft 477 kts 312°
2026-05-07 23:30 22.99163 -102.18798 34037 ft 477 kts 312°
2026-05-07 23:31 23.04103 -102.23607 34034 ft 477 kts 312°
2026-05-07 23:31 23.09036 -102.28414 34034 ft 477 kts 312°
2026-05-07 23:32 23.13972 -102.33229 34036 ft 477 kts 312°
2026-05-07 23:32 23.18904 -102.38044 34037 ft 477 kts 312°
2026-05-07 23:33 23.23843 -102.42872 34039 ft 477 kts 312°
2026-05-07 23:33 23.28781 -102.47704 34041 ft 477 kts 312°
2026-05-07 23:34 23.33688 -102.52511 34045 ft 477 kts 311°
2026-05-07 23:34 23.38620 -102.57347 34048 ft 477 kts 311°
2026-05-07 23:35 23.43552 -102.62188 34055 ft 477 kts 311°
2026-05-07 23:35 23.48476 -102.67026 34056 ft 477 kts 311°
2026-05-07 23:36 23.53397 -102.71867 34061 ft 476 kts 311°
2026-05-07 23:36 23.58318 -102.76713 34063 ft 476 kts 311°
2026-05-07 23:37 23.63229 -102.81556 34063 ft 476 kts 311°
2026-05-07 23:37 23.68134 -102.86395 34068 ft 475 kts 311°
2026-05-07 23:38 23.73471 -102.90756 34059 ft 488 kts 325°
2026-05-07 23:38 23.79857 -102.93509 34059 ft 502 kts 339°
2026-05-07 23:39 23.86677 -102.95268 34058 ft 504 kts 341°
2026-05-07 23:39 23.93502 -102.96970 34068 ft 503 kts 340°
2026-05-07 23:40 24.00269 -102.98730 34070 ft 503 kts 340°
2026-05-07 23:40 24.07068 -103.00542 34061 ft 503 kts 339°
2026-05-07 23:41 24.12764 -103.02067 34064 ft 503 kts 339°
2026-05-07 23:41 24.19553 -103.03881 34061 ft 503 kts 339°
2026-05-07 23:42 24.26350 -103.05698 34064 ft 503 kts 339°
2026-05-07 23:42 24.33153 -103.07518 34076 ft 504 kts 339°
2026-05-07 23:43 24.39974 -103.09345 34065 ft 505 kts 339°
2026-05-07 23:43 24.46756 -103.11163 34069 ft 505 kts 339°
2026-05-07 23:44 24.53567 -103.12991 34053 ft 504 kts 339°
2026-05-07 23:44 24.60366 -103.14818 34042 ft 502 kts 338°
2026-05-07 23:45 24.67158 -103.16645 34059 ft 502 kts 338°
2026-05-07 23:45 24.73941 -103.18470 34049 ft 502 kts 338°
2026-05-07 23:46 24.80730 -103.20297 34055 ft 502 kts 338°
2026-05-07 23:46 24.87515 -103.22125 34060 ft 502 kts 338°
2026-05-07 23:47 24.94302 -103.23957 34069 ft 502 kts 338°
2026-05-07 23:47 25.01094 -103.25791 34061 ft 502 kts 338°
2026-05-07 23:48 25.07878 -103.27627 34065 ft 502 kts 338°
2026-05-07 23:48 25.14658 -103.29462 34064 ft 502 kts 338°
2026-05-07 23:49 25.21440 -103.31298 34062 ft 501 kts 338°
2026-05-07 23:49 25.28152 -103.33117 34104 ft 500 kts 338°
2026-05-07 23:50 25.34958 -103.34965 34144 ft 500 kts 338°
2026-05-07 23:50 25.41669 -103.36789 34185 ft 500 kts 338°
2026-05-07 23:51 25.48430 -103.38628 34217 ft 499 kts 337°
2026-05-07 23:51 25.55015 -103.40820 34223 ft 487 kts 328°
2026-05-07 23:52 25.60944 -103.44249 34221 ft 473 kts 317°
2026-05-07 23:52 25.66285 -103.48455 34209 ft 471 kts 315°
2026-05-07 23:53 25.71610 -103.52713 34167 ft 473 kts 315°
2026-05-07 23:53 25.76981 -103.56956 34142 ft 474 kts 315°
2026-05-07 23:54 25.82332 -103.61164 34098 ft 475 kts 315°
2026-05-07 23:54 25.87722 -103.65407 34081 ft 475 kts 315°
2026-05-07 23:55 25.93110 -103.69657 34088 ft 475 kts 315°
2026-05-07 23:55 25.98504 -103.73900 34099 ft 475 kts 315°
2026-05-07 23:56 26.03908 -103.78157 34097 ft 475 kts 315°
2026-05-07 23:56 26.09294 -103.82407 34098 ft 474 kts 315°
2026-05-07 23:57 26.14670 -103.86655 34093 ft 473 kts 314°
2026-05-07 23:57 26.20027 -103.90893 34098 ft 472 kts 314°
2026-05-07 23:58 26.25365 -103.95122 34095 ft 471 kts 314°
2026-05-07 23:58 26.30696 -103.99350 34099 ft 469 kts 314°
2026-05-07 23:59 26.33349 -104.01455 33764 ft 467 kts 314°
2026-05-07 23:59 26.35987 -104.03546 33391 ft 461 kts 314°
2026-05-07 23:59 26.38594 -104.05614 33528 ft 462 kts 314°
2026-05-07 23:59 26.41227 -104.07717 33590 ft 470 kts 314°
2026-05-08 00:00 26.46642 -104.12047 33608 ft 487 kts 315°
2026-05-08 00:00 26.52206 -104.16478 33608 ft 493 kts 315°
2026-05-08 00:01 26.57804 -104.20929 33597 ft 494 kts 315°
2026-05-08 00:01 26.63397 -104.25393 33599 ft 494 kts 315°
2026-05-08 00:02 26.68988 -104.29865 33604 ft 494 kts 315°
2026-05-08 00:02 26.74578 -104.34341 33336 ft 494 kts 315°
2026-05-08 00:03 26.77367 -104.36575 32933 ft 492 kts 315°
2026-05-08 00:03 26.80142 -104.38796 32560 ft 487 kts 315°
2026-05-08 00:03 26.82878 -104.40985 32189 ft 482 kts 315°
2026-05-08 00:03 26.85595 -104.43164 31829 ft 479 kts 315°
2026-05-08 00:04 26.88300 -104.45338 31465 ft 477 kts 315°
2026-05-08 00:04 26.90994 -104.47507 31110 ft 476 kts 315°
2026-05-08 00:04 26.93672 -104.49664 30760 ft 474 kts 315°
2026-05-08 00:04 26.96313 -104.51792 30422 ft 473 kts 316°
2026-05-08 00:05 26.98985 -104.53946 30079 ft 473 kts 316°
2026-05-08 00:05 27.01656 -104.56100 29702 ft 472 kts 316°
2026-05-08 00:05 27.04307 -104.58239 29300 ft 472 kts 316°
2026-05-08 00:05 27.06963 -104.60383 28908 ft 472 kts 316°
2026-05-08 00:06 27.09647 -104.62550 28522 ft 471 kts 316°
2026-05-08 00:06 27.12302 -104.64694 28082 ft 469 kts 316°
2026-05-08 00:06 27.14946 -104.66830 27734 ft 467 kts 316°
2026-05-08 00:06 27.17579 -104.68958 27365 ft 465 kts 316°
2026-05-08 00:07 27.20194 -104.71073 26986 ft 463 kts 315°
2026-05-08 00:07 27.22800 -104.73182 26640 ft 461 kts 315°
2026-05-08 00:07 27.25396 -104.75284 26269 ft 458 kts 315°
2026-05-08 00:07 27.27966 -104.77367 25895 ft 454 kts 315°
2026-05-08 00:08 27.30516 -104.79433 25555 ft 448 kts 315°
2026-05-08 00:08 27.33026 -104.81468 25214 ft 442 kts 315°
2026-05-08 00:08 27.35508 -104.83482 24887 ft 437 kts 315°
2026-05-08 00:08 27.37951 -104.85467 24557 ft 431 kts 315°
2026-05-08 00:09 27.40375 -104.87439 24254 ft 429 kts 314°
2026-05-08 00:09 27.42797 -104.89415 23950 ft 430 kts 314°
2026-05-08 00:09 27.45226 -104.91398 23664 ft 432 kts 314°
2026-05-08 00:09 27.47658 -104.93382 23380 ft 432 kts 314°
2026-05-08 00:10 27.50086 -104.95362 23043 ft 430 kts 315°
2026-05-08 00:10 27.52508 -104.97336 22698 ft 428 kts 315°
2026-05-08 00:10 27.54908 -104.99292 22371 ft 425 kts 315°
2026-05-08 00:10 27.57274 -105.01222 22039 ft 422 kts 315°
2026-05-08 00:11 27.59661 -105.03170 21706 ft 419 kts 315°
2026-05-08 00:11 27.62011 -105.05089 21384 ft 415 kts 315°
2026-05-08 00:11 27.64337 -105.06991 21063 ft 411 kts 316°
2026-05-08 00:11 27.66643 -105.08879 20743 ft 408 kts 316°
2026-05-08 00:12 27.68928 -105.10750 20435 ft 404 kts 316°
2026-05-08 00:12 27.71191 -105.12604 20155 ft 399 kts 316°
2026-05-08 00:12 27.73392 -105.14407 19914 ft 395 kts 316°
2026-05-08 00:12 27.75599 -105.16216 19737 ft 389 kts 316°
2026-05-08 00:13 27.77804 -105.17993 19615 ft 393 kts 320°
2026-05-08 00:13 27.80200 -105.19558 19495 ft 401 kts 325°
2026-05-08 00:13 27.82713 -105.20966 19341 ft 404 kts 327°
2026-05-08 00:13 27.85253 -105.22322 19196 ft 403 kts 328°
2026-05-08 00:14 27.87779 -105.23676 19054 ft 401 kts 328°
2026-05-08 00:14 27.90279 -105.25039 18918 ft 398 kts 327°
2026-05-08 00:14 27.92755 -105.26415 18778 ft 397 kts 327°
2026-05-08 00:14 27.95229 -105.27807 18636 ft 395 kts 327°
2026-05-08 00:15 27.97688 -105.29202 18461 ft 395 kts 327°
2026-05-08 00:15 28.00147 -105.30602 18236 ft 396 kts 327°
2026-05-08 00:15 28.02611 -105.32006 18009 ft 397 kts 327°
2026-05-08 00:15 28.05078 -105.33411 17743 ft 396 kts 328°
2026-05-08 00:16 28.07539 -105.34813 17490 ft 396 kts 328°
2026-05-08 00:16 28.09988 -105.36207 17224 ft 391 kts 328°
2026-05-08 00:16 28.12406 -105.37585 16952 ft 386 kts 328°
2026-05-08 00:16 28.14799 -105.38950 16697 ft 385 kts 328°
2026-05-08 00:17 28.17191 -105.40317 16450 ft 385 kts 328°
2026-05-08 00:17 28.19582 -105.41683 16199 ft 385 kts 328°
2026-05-08 00:17 28.21971 -105.43048 15958 ft 385 kts 328°
2026-05-08 00:17 28.24360 -105.44413 15715 ft 384 kts 328°
2026-05-08 00:18 28.26747 -105.45779 15473 ft 384 kts 328°
2026-05-08 00:18 28.29131 -105.47144 15227 ft 384 kts 328°
2026-05-08 00:18 28.31516 -105.48510 14994 ft 384 kts 329°
2026-05-08 00:18 28.33901 -105.49876 14748 ft 384 kts 329°
2026-05-08 00:19 28.36279 -105.51240 14504 ft 383 kts 329°
2026-05-08 00:19 28.38655 -105.52603 14257 ft 382 kts 329°
2026-05-08 00:19 28.40994 -105.53946 14057 ft 381 kts 329°
2026-05-08 00:19 28.43361 -105.55305 13825 ft 381 kts 329°
2026-05-08 00:20 28.45720 -105.56659 13585 ft 378 kts 329°
2026-05-08 00:20 28.48048 -105.57996 13322 ft 370 kts 329°
2026-05-08 00:20 28.50319 -105.59301 13067 ft 362 kts 329°
2026-05-08 00:20 28.52542 -105.60578 12790 ft 354 kts 329°
2026-05-08 00:21 28.54714 -105.61828 12534 ft 346 kts 329°
2026-05-08 00:21 28.56836 -105.63051 12290 ft 338 kts 329°
2026-05-08 00:21 28.58911 -105.64246 12045 ft 331 kts 329°
2026-05-08 00:21 28.60950 -105.65420 11797 ft 324 kts 329°
2026-05-08 00:22 28.62944 -105.66570 11551 ft 318 kts 329°
2026-05-08 00:22 28.64889 -105.67691 11307 ft 311 kts 329°
2026-05-08 00:22 28.66802 -105.68794 11079 ft 307 kts 329°
2026-05-08 00:22 28.68705 -105.69894 10839 ft 305 kts 328°
2026-05-08 00:23 28.70584 -105.70979 10605 ft 299 kts 328°
2026-05-08 00:23 28.72424 -105.72042 10361 ft 293 kts 328°
2026-05-08 00:23 28.74224 -105.73082 10130 ft 287 kts 328°
2026-05-08 00:23 28.75989 -105.74103 9885 ft 281 kts 328°
2026-05-08 00:24 28.77687 -105.75085 9695 ft 272 kts 328°
2026-05-08 00:24 28.79338 -105.76040 9467 ft 263 kts 328°
2026-05-08 00:24 28.80969 -105.76986 9067 ft 262 kts 328°
2026-05-08 00:24 28.82584 -105.77922 8705 ft 259 kts 328°
2026-05-08 00:25 28.84171 -105.78841 8388 ft 252 kts 328°
2026-05-08 00:25 28.85716 -105.79735 8008 ft 246 kts 328°
2026-05-08 00:25 28.87136 -105.80705 7595 ft 229 kts 309°
2026-05-08 00:25 28.87952 -105.82173 7264 ft 217 kts 284°
2026-05-08 00:26 28.88323 -105.83842 6971 ft 216 kts 275°
2026-05-08 00:26 28.88595 -105.85477 6751 ft 202 kts 275°
2026-05-08 00:26 28.88843 -105.86973 6627 ft 184 kts 274°
2026-05-08 00:26 28.89080 -105.88426 6624 ft 188 kts 274°
2026-05-08 00:27 28.89316 -105.89898 6594 ft 187 kts 271°
2026-05-08 00:27 28.89100 -105.91279 6557 ft 173 kts 236°
2026-05-08 00:27 28.88284 -105.92243 6569 ft 169 kts 214°
2026-05-08 00:27 28.87176 -105.92662 6580 ft 169 kts 194°
2026-05-08 00:28 28.86007 -105.92915 6576 ft 173 kts 194°
2026-05-08 00:28 28.84813 -105.93181 6583 ft 175 kts 195°
2026-05-08 00:28 28.83629 -105.93441 6588 ft 173 kts 195°
2026-05-08 00:28 28.82470 -105.93696 6590 ft 171 kts 193°
2026-05-08 00:29 28.81312 -105.93948 6604 ft 170 kts 195°
2026-05-08 00:29 28.80138 -105.94207 6623 ft 174 kts 195°
2026-05-08 00:29 28.78952 -105.94466 6605 ft 174 kts 194°
2026-05-08 00:29 28.77758 -105.94729 6347 ft 173 kts 195°
2026-05-08 00:30 28.76595 -105.94983 6053 ft 167 kts 193°
2026-05-08 00:30 28.75482 -105.95221 5689 ft 156 kts 194°
2026-05-08 00:30 28.74439 -105.95451 5355 ft 151 kts 190°
2026-05-08 00:30 28.73747 -105.95602 5081 ft 154 kts 187°
2026-05-08 00:31 28.72682 -105.95845 4601 ft 156 kts 188°
2026-05-08 00:31 28.71644 -105.96064 4459 ft 150 kts 189°
2026-05-08 00:31 28.70656 -105.96275 4439 ft 119 kts 190°
2026-05-08 00:31 28.70066 -105.96400 4447 ft 67 kts 189°
2026-05-08 00:32 28.69756 -105.96471 4457 ft 23 kts 191°
2026-05-08 00:32 28.69599 -105.96506 4463 ft 23 kts 188°
2026-05-08 00:32 28.69440 -105.96538 4467 ft 23 kts 192°
2026-05-08 00:32 28.69283 -105.96578 4473 ft 23 kts 204°
2026-05-08 00:33 28.69200 -105.96642 4474 ft 4 kts 165°
2026-05-08 00:33 28.69189 -105.96614 4475 ft 5 kts 73°
2026-05-08 00:33 28.69247 -105.96580 4474 ft 15 kts 14°
2026-05-08 00:33 28.69375 -105.96554 4469 ft 20 kts 10°
2026-05-08 00:34 28.69513 -105.96525 4465 ft 20 kts 11°
2026-05-08 00:34 28.69651 -105.96492 4461 ft 20 kts 12°
2026-05-08 00:34 28.69789 -105.96462 4456 ft 20 kts 11°
2026-05-08 00:34 28.69927 -105.96432 4451 ft 20 kts 11°
2026-05-08 00:35 28.70032 -105.96457 4449 ft 15 kts 310°
2026-05-08 00:35 28.70120 -105.96511 4449 ft 15 kts 341°
2026-05-08 00:35 28.70217 -105.96549 4448 ft 15 kts 341°
2026-05-08 00:35 28.70287 -105.96625 4447 ft 15 kts 291°
2026-05-08 00:36 28.70309 -105.96739 4447 ft 15 kts 285°
2026-05-08 00:36 28.70391 -105.96778 4445 ft 15 kts 24°
2026-05-08 00:36 28.70466 -105.96697 4443 ft 15 kts 21°
2026-05-08 00:36 28.70509 -105.96771 4442 ft 8 kts 246°
2026-05-08 00:37 28.70477 -105.96801 4443 ft 0 kts 191°